Time,TemperatureF,DewpointF,PressureIn,WindDirection,WindDirectionDegrees,WindSpeedMPH,WindSpeedGustMPH,Humidity,HourlyPrecipIn,Conditions,Clouds,dailyrainin,SoftwareType,DateUTC
2013-03-13 00:00:00,46.7,29.0,30.24,SSE,157,1.0,4.0,50,0.00,,,0.00,WUHU216DAVISVP2,2013-03-13 07:00:00,
2013-03-13 00:05:00,46.2,28.5,30.25,SSE,157,4.0,4.0,50,0.00,,,0.00,WUHU216DAVISVP2,2013-03-13 07:05:00,
2013-03-13 00:10:00,46.5,28.3,30.25,SSE,157,3.0,4.0,49,0.00,,,0.00,WUHU216DAVISVP2,2013-03-13 07:10:00,
2013-03-13 00:15:00,46.9,28.2,30.24,SSE,157,1.0,4.0,48,0.00,,,0.00,WUHU216DAVISVP2,2013-03-13 07:15:00,
2013-03-13 00:20:00,46.8,28.1,30.24,SSE,157,1.0,3.0,48,0.00,,,0.00,WUHU216DAVISVP2,2013-03-13 07:20:00,
2013-03-13 00:25:00,46.8,28.6,30.24,SSE,157,2.0,3.0,49,0.00,,,0.00,WUHU216DAVISVP2,2013-03-13 07:25:00,
2013-03-13 00:30:00,46.0,28.4,30.25,SSE,163,1.0,3.0,50,0.00,,,0.00,WUHU216DAVISVP2,2013-03-13 07:30:00,
2013-03-13 00:35:00,44.9,28.8,30.25,South,179,2.0,3.0,53,0.00,,,0.00,WUHU216DAVISVP2,2013-03-13 07:35:00,
2013-03-13 00:40:00,44.1,28.5,30.25,South,178,3.0,3.0,54,0.00,,,0.00,WUHU216DAVISVP2,2013-03-13 07:40:00,
2013-03-13 00:45:00,44.3,28.7,30.25,South,178,1.0,3.0,54,0.00,,,0.00,WUHU216DAVISVP2,2013-03-13 07:45:00,
2013-03-13 00:50:00,43.8,29.1,30.25,South,173,3.0,4.0,56,0.00,,,0.00,WUHU216DAVISVP2,2013-03-13 07:50:00,
2013-03-13 00:55:00,43.6,28.9,30.25,South,171,2.0,4.0,56,0.00,,,0.00,WUHU216DAVISVP2,2013-03-13 07:55:00,
2013-03-13 01:00:00,43.6,28.5,30.25,South,171,1.0,3.0,55,0.00,,,0.00,WUHU216DAVISVP2,2013-03-13 08:00:00,
2013-03-13 01:08:00,43.8,28.2,30.25,South,171,2.0,3.0,54,0.00,,,0.00,WUHU216DAVISVP2,2013-03-13 08:08:00,
2013-03-13 01:13:00,45.3,28.2,30.25,South,170,3.0,4.0,51,0.00,,,0.00,WUHU216DAVISVP2,2013-03-13 08:13:00,
2013-03-13 01:18:00,45.7,28.6,30.25,South,170,2.0,4.0,51,0.00,,,0.00,WUHU216DAVISVP2,2013-03-13 08:18:00,
2013-03-13 01:23:00,45.2,28.6,30.25,South,174,1.0,4.0,52,0.00,,,0.00,WUHU216DAVISVP2,2013-03-13 08:23:00,
2013-03-13 01:28:00,43.8,28.7,30.25,South,176,2.0,3.0,55,0.00,,,0.00,WUHU216DAVISVP2,2013-03-13 08:28:00,
2013-03-13 01:33:00,42.7,28.6,30.25,South,171,3.0,4.0,57,0.00,,,0.00,WUHU216DAVISVP2,2013-03-13 08:33:00,
2013-03-13 01:38:00,43.0,28.4,30.25,South,171,1.0,4.0,56,0.00,,,0.00,WUHU216DAVISVP2,2013-03-13 08:38:00,
2013-03-13 01:43:00,44.0,28.4,30.24,South,171,0.0,4.0,54,0.00,,,0.00,WUHU216DAVISVP2,2013-03-13 08:43:00,
2013-03-13 01:48:00,44.3,28.2,30.24,South,171,2.0,4.0,53,0.00,,,0.00,WUHU216DAVISVP2,2013-03-13 08:48:00,
2013-03-13 01:53:00,44.2,28.1,30.24,SSE,166,3.0,5.0,53,0.00,,,0.00,WUHU216DAVISVP2,2013-03-13 08:53:00,
2013-03-13 01:58:00,44.0,28.4,30.24,South,174,3.0,5.0,54,0.00,,,0.00,WUHU216DAVISVP2,2013-03-13 08:58:00,
2013-03-13 02:03:00,43.3,28.7,30.24,South,180,1.0,4.0,56,0.00,,,0.00,WUHU216DAVISVP2,2013-03-13 09:03:00,
2013-03-13 02:08:00,42.5,28.4,30.24,South,180,1.0,4.0,57,0.00,,,0.00,WUHU216DAVISVP2,2013-03-13 09:08:00,
2013-03-13 02:13:00,42.2,28.5,30.24,South,180,2.0,4.0,58,0.00,,,0.00,WUHU216DAVISVP2,2013-03-13 09:13:00,
2013-03-13 02:18:00,42.6,28.5,30.24,South,180,1.0,3.0,57,0.00,,,0.00,WUHU216DAVISVP2,2013-03-13 09:18:00,
2013-03-13 02:23:00,43.1,28.5,30.24,South,180,2.0,3.0,56,0.00,,,0.00,WUHU216DAVISVP2,2013-03-13 09:23:00,
2013-03-13 02:28:00,43.6,28.5,30.24,South,180,0.0,2.0,55,0.00,,,0.00,WUHU216DAVISVP2,2013-03-13 09:28:00,
2013-03-13 02:33:00,43.6,28.1,30.24,South,180,1.0,1.0,54,0.00,,,0.00,WUHU216DAVISVP2,2013-03-13 09:33:00,
2013-03-13 02:38:00,43.8,28.2,30.23,South,177,3.0,4.0,54,0.00,,,0.00,WUHU216DAVISVP2,2013-03-13 09:38:00,
2013-03-13 02:43:00,43.5,28.4,30.24,South,175,1.0,4.0,55,0.00,,,0.00,WUHU216DAVISVP2,2013-03-13 09:43:00,
2013-03-13 02:48:00,43.1,28.5,30.24,South,175,1.0,3.0,56,0.00,,,0.00,WUHU216DAVISVP2,2013-03-13 09:48:00,
2013-03-13 02:53:00,42.5,28.3,30.24,South,175,0.0,1.0,57,0.00,,,0.00,WUHU216DAVISVP2,2013-03-13 09:53:00,
2013-03-13 02:58:00,42.2,28.5,30.24,South,175,0.0,2.0,58,0.00,,,0.00,WUHU216DAVISVP2,2013-03-13 09:58:00,
2013-03-13 03:03:00,42.2,28.5,30.24,South,175,0.0,3.0,58,0.00,,,0.00,WUHU216DAVISVP2,2013-03-13 10:03:00,
2013-03-13 03:08:00,42.7,28.1,30.24,South,175,0.0,3.0,56,0.00,,,0.00,WUHU216DAVISVP2,2013-03-13 10:08:00,
2013-03-13 03:13:00,43.1,27.6,30.24,South,175,0.0,1.0,54,0.00,,,0.00,WUHU216DAVISVP2,2013-03-13 10:13:00,
2013-03-13 03:18:00,43.8,27.8,30.24,South,175,0.0,0.0,53,0.00,,,0.00,WUHU216DAVISVP2,2013-03-13 10:18:00,
2013-03-13 03:23:00,44.2,28.1,30.24,South,175,3.0,3.0,53,0.00,,,0.00,WUHU216DAVISVP2,2013-03-13 10:23:00,
2013-03-13 03:28:00,42.8,28.6,30.24,SSE,162,2.0,5.0,57,0.00,,,0.00,WUHU216DAVISVP2,2013-03-13 10:28:00,
2013-03-13 03:33:00,41.1,28.7,30.24,South,191,3.0,5.0,61,0.00,,,0.00,WUHU216DAVISVP2,2013-03-13 10:33:00,
2013-03-13 03:38:00,39.5,28.8,30.24,South,190,2.0,6.0,65,0.00,,,0.00,WUHU216DAVISVP2,2013-03-13 10:38:00,
2013-03-13 03:43:00,38.4,28.8,30.23,South,187,1.0,6.0,68,0.00,,,0.00,WUHU216DAVISVP2,2013-03-13 10:43:00,
2013-03-13 03:48:00,38.4,28.8,30.23,South,190,3.0,4.0,68,0.00,,,0.00,WUHU216DAVISVP2,2013-03-13 10:48:00,
2013-03-13 03:53:00,38.9,28.5,30.24,South,190,0.0,4.0,66,0.00,,,0.00,WUHU216DAVISVP2,2013-03-13 10:53:00,
2013-03-13 03:58:00,39.6,28.4,30.23,South,190,0.0,3.0,64,0.00,,,0.00,WUHU216DAVISVP2,2013-03-13 10:58:00,
2013-03-13 04:03:00,40.6,28.7,30.23,South,190,0.0,1.0,62,0.00,,,0.00,WUHU216DAVISVP2,2013-03-13 11:03:00,
2013-03-13 04:08:00,41.2,28.4,30.23,South,190,1.0,2.0,60,0.00,,,0.00,WUHU216DAVISVP2,2013-03-13 11:08:00,
2013-03-13 04:13:00,42.1,28.9,30.23,South,171,2.0,4.0,59,0.00,,,0.00,WUHU216DAVISVP2,2013-03-13 11:13:00,
2013-03-13 04:18:00,41.6,28.4,30.23,South,169,2.0,4.0,59,0.00,,,0.00,WUHU216DAVISVP2,2013-03-13 11:18:00,
2013-03-13 04:23:00,41.2,28.4,30.23,South,169,4.0,4.0,60,0.00,,,0.00,WUHU216DAVISVP2,2013-03-13 11:23:00,
2013-03-13 04:28:00,41.3,28.5,30.23,South,169,2.0,4.0,60,0.00,,,0.00,WUHU216DAVISVP2,2013-03-13 11:28:00,
2013-03-13 04:33:00,41.8,28.6,30.24,South,169,3.0,4.0,59,0.00,,,0.00,WUHU216DAVISVP2,2013-03-13 11:33:00,
2013-03-13 04:38:00,41.6,28.8,30.24,SSE,167,2.0,4.0,60,0.00,,,0.00,WUHU216DAVISVP2,2013-03-13 11:38:00,
2013-03-13 04:43:00,41.3,28.5,30.24,SSE,167,0.0,4.0,60,0.00,,,0.00,WUHU216DAVISVP2,2013-03-13 11:43:00,
2013-03-13 04:48:00,40.9,28.6,30.24,SSE,167,1.0,4.0,61,0.00,,,0.00,WUHU216DAVISVP2,2013-03-13 11:48:00,
2013-03-13 04:53:00,40.5,28.6,30.24,SSE,167,2.0,3.0,62,0.00,,,0.00,WUHU216DAVISVP2,2013-03-13 11:53:00,
2013-03-13 04:58:00,40.4,28.5,30.24,South,169,2.0,3.0,62,0.00,,,0.00,WUHU216DAVISVP2,2013-03-13 11:58:00,
2013-03-13 05:03:00,40.2,28.7,30.24,SSE,162,3.0,5.0,63,0.00,,,0.00,WUHU216DAVISVP2,2013-03-13 12:03:00,
2013-03-13 05:08:00,40.3,28.7,30.24,SSE,165,1.0,5.0,63,0.00,,,0.00,WUHU216DAVISVP2,2013-03-13 12:08:00,
2013-03-13 05:13:00,40.2,28.6,30.24,SSE,166,4.0,5.0,63,0.00,,,0.00,WUHU216DAVISVP2,2013-03-13 12:13:00,
2013-03-13 05:18:00,40.4,28.5,30.24,SSE,164,3.0,5.0,62,0.00,,,0.00,WUHU216DAVISVP2,2013-03-13 12:18:00,
2013-03-13 05:23:00,40.5,28.5,30.24,SSE,163,3.0,5.0,62,0.00,,,0.00,WUHU216DAVISVP2,2013-03-13 12:23:00,
2013-03-13 05:28:00,40.6,28.7,30.24,SSE,163,1.0,5.0,62,0.00,,,0.00,WUHU216DAVISVP2,2013-03-13 12:28:00,
2013-03-13 05:33:00,40.3,28.3,30.24,SSE,163,0.0,4.0,62,0.00,,,0.00,WUHU216DAVISVP2,2013-03-13 12:33:00,
2013-03-13 05:38:00,40.0,28.5,30.24,SSE,163,0.0,2.0,63,0.00,,,0.00,WUHU216DAVISVP2,2013-03-13 12:38:00,
2013-03-13 05:43:00,39.7,28.2,30.24,SSE,163,0.0,1.0,63,0.00,,,0.00,WUHU216DAVISVP2,2013-03-13 12:43:00,
2013-03-13 05:48:00,39.6,28.1,30.24,SSE,163,1.0,1.0,63,0.00,,,0.00,WUHU216DAVISVP2,2013-03-13 12:48:00,
2013-03-13 05:53:00,40.4,28.4,30.24,SSE,163,0.0,1.0,62,0.00,,,0.00,WUHU216DAVISVP2,2013-03-13 12:53:00,
2013-03-13 05:58:00,41.0,28.2,30.24,SSE,163,0.0,1.0,60,0.00,,,0.00,WUHU216DAVISVP2,2013-03-13 12:58:00,
2013-03-13 06:03:00,40.9,28.6,30.24,SSE,163,0.0,0.0,61,0.00,,,0.00,WUHU216DAVISVP2,2013-03-13 13:03:00,
2013-03-13 06:08:00,40.7,28.4,30.24,SSE,163,1.0,2.0,61,0.00,,,0.00,WUHU216DAVISVP2,2013-03-13 13:08:00,
2013-03-13 06:13:00,40.5,28.6,30.24,SSE,163,0.0,2.0,62,0.00,,,0.00,WUHU216DAVISVP2,2013-03-13 13:13:00,
2013-03-13 06:18:00,40.3,28.4,30.24,SSE,163,1.0,2.0,62,0.00,,,0.00,WUHU216DAVISVP2,2013-03-13 13:18:00,
2013-03-13 06:23:00,40.1,28.2,30.25,SSE,163,1.0,2.0,62,0.00,,,0.00,WUHU216DAVISVP2,2013-03-13 13:23:00,
2013-03-13 06:28:00,39.7,28.2,30.25,SSE,163,0.0,2.0,63,0.00,,,0.00,WUHU216DAVISVP2,2013-03-13 13:28:00,
2013-03-13 06:33:00,39.6,28.1,30.25,SSE,163,0.0,2.0,63,0.00,,,0.00,WUHU216DAVISVP2,2013-03-13 13:33:00,
2013-03-13 06:38:00,39.8,28.2,30.25,SSE,163,0.0,1.0,63,0.00,,,0.00,WUHU216DAVISVP2,2013-03-13 13:38:00,
2013-03-13 06:44:00,40.1,28.6,30.26,SSE,163,0.0,1.0,63,0.00,,,0.00,WUHU216DAVISVP2,2013-03-13 13:44:00,
2013-03-13 06:49:00,40.2,28.3,30.26,SSE,163,0.0,1.0,62,0.00,,,0.00,WUHU216DAVISVP2,2013-03-13 13:49:00,
2013-03-13 06:54:00,40.2,28.3,30.26,SSE,163,0.0,1.0,62,0.00,,,0.00,WUHU216DAVISVP2,2013-03-13 13:54:00,
2013-03-13 06:59:00,40.3,28.4,30.26,SSE,163,0.0,1.0,62,0.00,,,0.00,WUHU216DAVISVP2,2013-03-13 13:59:00,
2013-03-13 07:04:00,40.5,28.5,30.26,SSE,163,1.0,3.0,62,0.00,,,0.00,WUHU216DAVISVP2,2013-03-13 14:04:00,
2013-03-13 07:09:00,40.3,28.8,30.26,SSE,163,2.0,4.0,63,0.00,,,0.00,WUHU216DAVISVP2,2013-03-13 14:09:00,
2013-03-13 07:14:00,39.9,28.8,30.26,SSE,163,1.0,4.0,64,0.00,,,0.00,WUHU216DAVISVP2,2013-03-13 14:14:00,
2013-03-13 07:19:00,39.3,28.6,30.27,SSE,163,2.0,3.0,65,0.00,,,0.00,WUHU216DAVISVP2,2013-03-13 14:19:00,
2013-03-13 07:24:00,38.9,28.2,30.27,SSE,165,2.0,3.0,65,0.00,,,0.00,WUHU216DAVISVP2,2013-03-13 14:24:00,
2013-03-13 07:29:00,38.8,28.1,30.27,SSE,165,2.0,3.0,65,0.00,,,0.00,WUHU216DAVISVP2,2013-03-13 14:29:00,
2013-03-13 07:34:00,39.0,28.3,30.27,SSE,165,0.0,3.0,65,0.00,,,0.00,WUHU216DAVISVP2,2013-03-13 14:34:00,
2013-03-13 07:39:00,39.7,28.5,30.27,SSE,165,1.0,3.0,64,0.00,,,0.00,WUHU216DAVISVP2,2013-03-13 14:39:00,
2013-03-13 07:44:00,40.8,28.9,30.27,SSE,165,0.0,2.0,62,0.00,,,0.00,WUHU216DAVISVP2,2013-03-13 14:44:00,
2013-03-13 07:49:00,41.8,29.0,30.27,SSE,165,1.0,2.0,60,0.00,,,0.00,WUHU216DAVISVP2,2013-03-13 14:49:00,
2013-03-13 07:54:00,42.9,29.6,30.27,SSE,165,1.0,2.0,59,0.00,,,0.00,WUHU216DAVISVP2,2013-03-13 14:54:00,
2013-03-13 07:59:00,43.9,29.2,30.27,SSE,165,1.0,2.0,56,0.00,,,0.00,WUHU216DAVISVP2,2013-03-13 14:59:00,
2013-03-13 08:04:00,44.7,29.5,30.27,SSE,165,0.0,2.0,55,0.00,,,0.00,WUHU216DAVISVP2,2013-03-13 15:04:00,
2013-03-13 08:09:00,45.4,29.3,30.28,SSE,165,0.0,2.0,53,0.00,,,0.00,WUHU216DAVISVP2,2013-03-13 15:09:00,
2013-03-13 08:14:00,46.2,29.0,30.28,SSE,165,0.0,2.0,51,0.00,,,0.00,WUHU216DAVISVP2,2013-03-13 15:14:00,
2013-03-13 08:19:00,46.9,29.2,30.28,SSE,165,2.0,2.0,50,0.00,,,0.00,WUHU216DAVISVP2,2013-03-13 15:19:00,
2013-03-13 08:24:00,47.7,29.9,30.28,SSE,165,1.0,2.0,50,0.00,,,0.00,WUHU216DAVISVP2,2013-03-13 15:24:00,
2013-03-13 08:29:00,48.2,30.4,30.28,SSE,165,3.0,3.0,50,0.00,,,0.00,WUHU216DAVISVP2,2013-03-13 15:29:00,
2013-03-13 08:34:00,48.9,31.0,30.28,SSE,165,0.0,3.0,50,0.00,,,0.00,WUHU216DAVISVP2,2013-03-13 15:34:00,
2013-03-13 08:39:00,49.6,30.6,30.28,SSE,165,1.0,2.0,48,0.00,,,0.00,WUHU216DAVISVP2,2013-03-13 15:39:00,
2013-03-13 08:44:00,50.3,29.7,30.28,SSE,165,1.0,3.0,45,0.00,,,0.00,WUHU216DAVISVP2,2013-03-13 15:44:00,
2013-03-13 08:49:00,51.2,28.7,30.28,SSE,165,0.0,3.0,42,0.00,,,0.00,WUHU216DAVISVP2,2013-03-13 15:49:00,
2013-03-13 08:54:00,52.4,29.4,30.28,SSE,165,1.0,2.0,41,0.00,,,0.00,WUHU216DAVISVP2,2013-03-13 15:54:00,
2013-03-13 08:59:00,53.4,29.7,30.28,SSE,164,0.0,3.0,40,0.00,,,0.00,WUHU216DAVISVP2,2013-03-13 15:59:00,
2013-03-13 09:04:00,54.2,29.6,30.28,SSE,163,2.0,3.0,39,0.00,,,0.00,WUHU216DAVISVP2,2013-03-13 16:04:00,
2013-03-13 09:09:00,55.0,29.6,30.28,NE,36,3.0,4.0,38,0.00,,,0.00,WUHU216DAVISVP2,2013-03-13 16:09:00,
2013-03-13 09:14:00,55.2,29.2,30.28,NE,53,2.0,4.0,37,0.00,,,0.00,WUHU216DAVISVP2,2013-03-13 16:14:00,
2013-03-13 09:19:00,55.5,29.4,30.28,NE,44,5.0,5.0,37,0.00,,,0.00,WUHU216DAVISVP2,2013-03-13 16:19:00,
2013-03-13 09:24:00,55.7,28.9,30.28,ENE,65,4.0,5.0,36,0.00,,,0.00,WUHU216DAVISVP2,2013-03-13 16:24:00,
2013-03-13 09:29:00,56.0,30.1,30.28,NE,52,3.0,5.0,37,0.00,,,0.00,WUHU216DAVISVP2,2013-03-13 16:29:00,
2013-03-13 09:34:00,56.4,28.9,30.29,ENE,61,3.0,5.0,35,0.00,,,0.00,WUHU216DAVISVP2,2013-03-13 16:34:00,
2013-03-13 09:39:00,56.7,29.1,30.29,North,5,3.0,5.0,35,0.00,,,0.00,WUHU216DAVISVP2,2013-03-13 16:39:00,
2013-03-13 09:44:00,57.3,29.9,30.29,NNW,344,4.0,5.0,35,0.00,,,0.00,WUHU216DAVISVP2,2013-03-13 16:44:00,
2013-03-13 09:49:00,57.2,29.6,30.29,NE,54,4.0,5.0,35,0.00,,,0.00,WUHU216DAVISVP2,2013-03-13 16:49:00,
2013-03-13 09:54:00,57.7,30.2,30.29,NE,36,7.0,7.0,35,0.00,,,0.00,WUHU216DAVISVP2,2013-03-13 16:54:00,
2013-03-13 09:59:00,58.0,28.8,30.29,North,5,6.0,7.0,33,0.00,,,0.00,WUHU216DAVISVP2,2013-03-13 16:59:00,
2013-03-13 10:04:00,58.4,29.2,30.28,North,360,3.0,7.0,33,0.00,,,0.00,WUHU216DAVISVP2,2013-03-13 17:04:00,
2013-03-13 10:09:00,59.0,29.2,30.29,North,11,3.0,6.0,32,0.00,,,0.00,WUHU216DAVISVP2,2013-03-13 17:09:00,
2013-03-13 10:14:00,59.4,29.3,30.29,NNW,346,4.0,7.0,32,0.00,,,0.00,WUHU216DAVISVP2,2013-03-13 17:14:00,
2013-03-13 10:19:00,59.7,28.8,30.29,NE,42,2.0,7.0,31,0.00,,,0.00,WUHU216DAVISVP2,2013-03-13 17:19:00,
2013-03-13 10:24:00,60.5,29.5,30.29,ENE,71,4.0,6.0,31,0.00,,,0.00,WUHU216DAVISVP2,2013-03-13 17:24:00,
2013-03-13 10:29:00,61.1,29.2,30.29,North,5,3.0,6.0,30,0.00,,,0.00,WUHU216DAVISVP2,2013-03-13 17:29:00,
2013-03-13 10:34:00,61.9,29.1,30.29,NE,56,4.0,6.0,29,0.00,,,0.00,WUHU216DAVISVP2,2013-03-13 17:34:00,
2013-03-13 10:39:00,62.4,28.7,30.29,NE,52,2.0,8.0,28,0.00,,,0.00,WUHU216DAVISVP2,2013-03-13 17:39:00,
2013-03-13 10:44:00,62.5,27.9,30.29,ENE,61,3.0,8.0,27,0.00,,,0.00,WUHU216DAVISVP2,2013-03-13 17:44:00,
2013-03-13 10:49:00,62.5,28.8,30.29,NNE,27,5.0,7.0,28,0.00,,,0.00,WUHU216DAVISVP2,2013-03-13 17:49:00,
2013-03-13 10:54:00,62.6,27.1,30.29,NE,36,4.0,7.0,26,0.00,,,0.00,WUHU216DAVISVP2,2013-03-13 17:54:00,
2013-03-13 10:59:00,62.5,27.0,30.28,East,86,2.0,7.0,26,0.00,,,0.00,WUHU216DAVISVP2,2013-03-13 17:59:00,
2013-03-13 11:04:00,62.9,28.2,30.28,NNE,13,4.0,7.0,27,0.00,,,0.00,WUHU216DAVISVP2,2013-03-13 18:04:00,
2013-03-13 11:09:00,63.0,28.3,30.28,North,9,5.0,7.0,27,0.00,,,0.00,WUHU216DAVISVP2,2013-03-13 18:09:00,
2013-03-13 11:14:00,63.0,28.3,30.28,NNW,328,5.0,7.0,27,0.00,,,0.00,WUHU216DAVISVP2,2013-03-13 18:14:00,
2013-03-13 11:19:00,63.3,28.6,30.28,NNE,33,4.0,8.0,27,0.00,,,0.00,WUHU216DAVISVP2,2013-03-13 18:19:00,
2013-03-13 11:24:00,63.8,28.1,30.28,North,5,5.0,8.0,26,0.00,,,0.00,WUHU216DAVISVP2,2013-03-13 18:24:00,
2013-03-13 11:29:00,63.9,27.2,30.28,NE,40,5.0,8.0,25,0.00,,,0.00,WUHU216DAVISVP2,2013-03-13 18:29:00,
2013-03-13 11:34:00,63.8,27.1,30.28,ENE,61,5.0,11.0,25,0.00,,,0.00,WUHU216DAVISVP2,2013-03-13 18:34:00,
2013-03-13 11:39:00,63.7,27.1,30.28,East,84,5.0,11.0,25,0.00,,,0.00,WUHU216DAVISVP2,2013-03-13 18:39:00,
2013-03-13 11:44:00,64.2,27.5,30.28,ENE,71,8.0,9.0,25,0.00,,,0.00,WUHU216DAVISVP2,2013-03-13 18:44:00,
2013-03-13 11:49:00,64.5,27.7,30.27,ENE,66,4.0,9.0,25,0.00,,,0.00,WUHU216DAVISVP2,2013-03-13 18:49:00,
2013-03-13 11:54:00,65.2,28.3,30.27,NE,44,4.0,10.0,25,0.00,,,0.00,WUHU216DAVISVP2,2013-03-13 18:54:00,
2013-03-13 11:59:00,65.5,26.6,30.27,ENE,63,8.0,10.0,23,0.00,,,0.00,WUHU216DAVISVP2,2013-03-13 18:59:00,
2013-03-13 12:04:00,65.4,26.5,30.27,NE,40,6.0,10.0,23,0.00,,,0.00,WUHU216DAVISVP2,2013-03-13 19:04:00,
2013-03-13 12:09:00,65.2,25.3,30.27,ESE,113,3.0,10.0,22,0.00,,,0.00,WUHU216DAVISVP2,2013-03-13 19:09:00,
2013-03-13 12:14:00,65.3,25.4,30.27,NE,46,2.0,8.0,22,0.00,,,0.00,WUHU216DAVISVP2,2013-03-13 19:14:00,
2013-03-13 12:19:00,65.5,25.5,30.26,NNW,334,7.0,7.0,22,0.00,,,0.00,WUHU216DAVISVP2,2013-03-13 19:19:00,
2013-03-13 12:24:00,65.4,25.5,30.26,NW,317,2.0,8.0,22,0.00,,,0.00,WUHU216DAVISVP2,2013-03-13 19:24:00,
2013-03-13 12:29:00,66.1,24.9,30.26,North,5,4.0,8.0,21,0.00,,,0.00,WUHU216DAVISVP2,2013-03-13 19:29:00,
2013-03-13 12:34:00,66.4,26.3,30.26,North,9,4.0,9.0,22,0.00,,,0.00,WUHU216DAVISVP2,2013-03-13 19:34:00,
2013-03-13 12:39:00,66.2,26.1,30.25,East,101,2.0,10.0,22,0.00,,,0.00,WUHU216DAVISVP2,2013-03-13 19:39:00,
2013-03-13 12:44:00,66.4,25.2,30.25,NE,34,1.0,10.0,21,0.00,,,0.00,WUHU216DAVISVP2,2013-03-13 19:44:00,
2013-03-13 12:49:00,66.5,25.3,30.25,ENE,57,5.0,11.0,21,0.00,,,0.00,WUHU216DAVISVP2,2013-03-13 19:49:00,
2013-03-13 12:54:00,66.4,26.3,30.25,NNW,341,4.0,11.0,22,0.00,,,0.00,WUHU216DAVISVP2,2013-03-13 19:54:00,
2013-03-13 12:59:00,66.8,26.6,30.24,NE,44,5.0,10.0,22,0.00,,,0.00,WUHU216DAVISVP2,2013-03-13 19:59:00,
2013-03-13 13:04:00,66.8,25.5,30.24,NE,34,1.0,10.0,21,0.00,,,0.00,WUHU216DAVISVP2,2013-03-13 20:04:00,
2013-03-13 13:09:00,67.6,26.2,30.24,NNW,336,3.0,8.0,21,0.00,,,0.00,WUHU216DAVISVP2,2013-03-13 20:09:00,
2013-03-13 13:14:00,68.2,25.5,30.23,ESE,105,4.0,6.0,20,0.00,,,0.00,WUHU216DAVISVP2,2013-03-13 20:14:00,
2013-03-13 13:19:00,68.0,25.4,30.23,NNE,30,4.0,7.0,20,0.00,,,0.00,WUHU216DAVISVP2,2013-03-13 20:19:00,
2013-03-13 13:24:00,68.3,24.4,30.23,ENE,69,1.0,7.0,19,0.00,,,0.00,WUHU216DAVISVP2,2013-03-13 20:24:00,
2013-03-13 13:29:00,68.7,24.7,30.23,East,84,8.0,8.0,19,0.00,,,0.00,WUHU216DAVISVP2,2013-03-13 20:29:00,
2013-03-13 13:34:00,68.0,24.2,30.22,ENE,66,5.0,11.0,19,0.00,,,0.00,WUHU216DAVISVP2,2013-03-13 20:34:00,
2013-03-13 13:39:00,68.0,24.1,30.22,ENE,74,4.0,11.0,19,0.00,,,0.00,WUHU216DAVISVP2,2013-03-13 20:39:00,
2013-03-13 13:44:00,67.9,22.8,30.22,ENE,66,4.0,9.0,18,0.00,,,0.00,WUHU216DAVISVP2,2013-03-13 20:44:00,
2013-03-13 13:49:00,68.0,24.1,30.22,NNE,20,5.0,7.0,19,0.00,,,0.00,WUHU216DAVISVP2,2013-03-13 20:49:00,
2013-03-13 13:54:00,68.1,22.9,30.21,NE,35,4.0,7.0,18,0.00,,,0.00,WUHU216DAVISVP2,2013-03-13 20:54:00,
2013-03-13 13:59:00,68.6,23.4,30.21,North,5,7.0,8.0,18,0.00,,,0.00,WUHU216DAVISVP2,2013-03-13 20:59:00,
2013-03-13 14:04:00,68.6,24.7,30.21,NW,319,2.0,8.0,19,0.00,,,0.00,WUHU216DAVISVP2,2013-03-13 21:04:00,
2013-03-13 14:09:00,69.1,25.0,30.21,North,10,8.0,8.0,19,0.00,,,0.00,WUHU216DAVISVP2,2013-03-13 21:09:00,
2013-03-13 14:14:00,69.4,24.0,30.20,NNW,333,8.0,8.0,18,0.00,,,0.00,WUHU216DAVISVP2,2013-03-13 21:14:00,
2013-03-13 14:19:00,69.0,23.7,30.20,NNW,342,0.0,8.0,18,0.00,,,0.00,WUHU216DAVISVP2,2013-03-13 21:19:00,
2013-03-13 14:24:00,69.4,24.0,30.20,NE,49,10.0,11.0,18,0.00,,,0.00,WUHU216DAVISVP2,2013-03-13 21:24:00,
2013-03-13 14:29:00,68.9,23.6,30.20,NNE,18,4.0,11.0,18,0.00,,,0.00,WUHU216DAVISVP2,2013-03-13 21:29:00,
2013-03-13 14:34:00,69.4,24.0,30.20,East,96,3.0,10.0,18,0.00,,,0.00,WUHU216DAVISVP2,2013-03-13 21:34:00,
2013-03-13 14:39:00,68.9,22.2,30.20,NE,55,4.0,8.0,17,0.00,,,0.00,WUHU216DAVISVP2,2013-03-13 21:39:00,
2013-03-13 14:44:00,68.8,23.5,30.20,SE,133,3.0,8.0,18,0.00,,,0.00,WUHU216DAVISVP2,2013-03-13 21:44:00,
2013-03-13 14:49:00,69.4,25.3,30.20,NNE,31,4.0,7.0,19,0.00,,,0.00,WUHU216DAVISVP2,2013-03-13 21:49:00,
2013-03-13 14:54:00,70.0,24.5,30.20,NNE,14,4.0,8.0,18,0.00,,,0.00,WUHU216DAVISVP2,2013-03-13 21:54:00,
2013-03-13 14:59:00,70.3,23.4,30.20,ENE,60,4.0,8.0,17,0.00,,,0.00,WUHU216DAVISVP2,2013-03-13 21:59:00,
2013-03-13 15:04:00,69.9,23.0,30.20,NNW,330,5.0,7.0,17,0.00,,,0.00,WUHU216DAVISVP2,2013-03-13 22:04:00,
2013-03-13 15:09:00,69.5,24.1,30.20,ENE,67,2.0,7.0,18,0.00,,,0.00,WUHU216DAVISVP2,2013-03-13 22:09:00,
2013-03-13 15:14:00,70.1,21.8,30.20,NW,305,0.0,7.0,16,0.00,,,0.00,WUHU216DAVISVP2,2013-03-13 22:14:00,
2013-03-13 15:19:00,70.3,23.4,30.20,NNE,23,3.0,9.0,17,0.00,,,0.00,WUHU216DAVISVP2,2013-03-13 22:19:00,
2013-03-13 15:24:00,70.1,21.8,30.20,East,101,3.0,9.0,16,0.00,,,0.00,WUHU216DAVISVP2,2013-03-13 22:24:00,
2013-03-13 15:29:00,69.8,21.5,30.20,ESE,122,1.0,7.0,16,0.00,,,0.00,WUHU216DAVISVP2,2013-03-13 22:29:00,
2013-03-13 15:34:00,70.6,22.2,30.20,NNE,13,2.0,7.0,16,0.00,,,0.00,WUHU216DAVISVP2,2013-03-13 22:34:00,
2013-03-13 15:39:00,70.5,22.1,30.20,East,80,1.0,9.0,16,0.00,,,0.00,WUHU216DAVISVP2,2013-03-13 22:39:00,
2013-03-13 15:44:00,70.1,23.2,30.20,NNE,27,6.0,9.0,17,0.00,,,0.00,WUHU216DAVISVP2,2013-03-13 22:44:00,
2013-03-13 15:49:00,70.3,23.4,30.20,NNW,338,3.0,8.0,17,0.00,,,0.00,WUHU216DAVISVP2,2013-03-13 22:49:00,
2013-03-13 15:54:00,70.5,23.5,30.20,NE,41,7.0,8.0,17,0.00,,,0.00,WUHU216DAVISVP2,2013-03-13 22:54:00,
2013-03-13 15:59:00,70.3,23.4,30.20,NE,38,3.0,8.0,17,0.00,,,0.00,WUHU216DAVISVP2,2013-03-13 22:59:00,
2013-03-13 16:04:00,70.1,23.2,30.19,North,5,4.0,9.0,17,0.00,,,0.00,WUHU216DAVISVP2,2013-03-13 23:04:00,
2013-03-13 16:09:00,70.4,23.5,30.19,NNW,333,3.0,9.0,17,0.00,,,0.00,WUHU216DAVISVP2,2013-03-13 23:09:00,
2013-03-13 16:14:00,70.8,23.8,30.19,NNE,12,6.0,8.0,17,0.00,,,0.00,WUHU216DAVISVP2,2013-03-13 23:14:00,
2013-03-13 16:19:00,70.7,23.7,30.19,ENE,59,7.0,8.0,17,0.00,,,0.00,WUHU216DAVISVP2,2013-03-13 23:19:00,
2013-03-13 16:24:00,70.4,23.5,30.19,NE,54,3.0,9.0,17,0.00,,,0.00,WUHU216DAVISVP2,2013-03-13 23:24:00,
2013-03-13 16:29:00,70.2,23.3,30.18,ESE,106,2.0,9.0,17,0.00,,,0.00,WUHU216DAVISVP2,2013-03-13 23:29:00,
2013-03-13 16:34:00,70.1,23.2,30.19,NE,36,5.0,10.0,17,0.00,,,0.00,WUHU216DAVISVP2,2013-03-13 23:34:00,
2013-03-13 16:39:00,69.9,23.0,30.18,North,11,2.0,10.0,17,0.00,,,0.00,WUHU216DAVISVP2,2013-03-13 23:39:00,
2013-03-13 16:44:00,70.1,23.2,30.19,ENE,73,9.0,9.0,17,0.00,,,0.00,WUHU216DAVISVP2,2013-03-13 23:44:00,
2013-03-13 16:49:00,69.8,23.0,30.19,ENE,59,3.0,9.0,17,0.00,,,0.00,WUHU216DAVISVP2,2013-03-13 23:49:00,
2013-03-13 16:54:00,69.5,22.7,30.19,NE,38,4.0,11.0,17,0.00,,,0.00,WUHU216DAVISVP2,2013-03-13 23:54:00,
2013-03-13 16:59:00,69.3,22.6,30.19,East,82,5.0,11.0,17,0.00,,,0.00,WUHU216DAVISVP2,2013-03-13 23:59:00,
2013-03-13 17:04:00,69.3,23.9,30.19,NE,44,2.0,8.0,18,0.00,,,0.00,WUHU216DAVISVP2,2013-03-14 00:04:00,
2013-03-13 17:09:00,69.4,24.0,30.19,NE,38,5.0,8.0,18,0.00,,,0.00,WUHU216DAVISVP2,2013-03-14 00:09:00,
2013-03-13 17:14:00,69.3,22.6,30.19,North,360,1.0,8.0,17,0.00,,,0.00,WUHU216DAVISVP2,2013-03-14 00:14:00,
2013-03-13 17:19:00,69.7,22.9,30.18,NNW,333,0.0,5.0,17,0.00,,,0.00,WUHU216DAVISVP2,2013-03-14 00:19:00,
2013-03-13 17:27:00,69.9,23.0,30.18,NW,319,5.0,7.0,17,0.00,,,0.00,WUHU216DAVISVP2,2013-03-14 00:27:00,
2013-03-13 17:32:00,69.2,23.8,30.18,NNE,26,4.0,8.0,18,0.00,,,0.00,WUHU216DAVISVP2,2013-03-14 00:32:00,
2013-03-13 17:37:00,69.2,22.5,30.19,ENE,59,3.0,5.0,17,0.00,,,0.00,WUHU216DAVISVP2,2013-03-14 00:37:00,
2013-03-13 17:42:00,69.0,23.7,30.18,ENE,58,1.0,5.0,18,0.00,,,0.00,WUHU216DAVISVP2,2013-03-14 00:42:00,
2013-03-13 17:47:00,69.0,23.7,30.18,NE,52,4.0,5.0,18,0.00,,,0.00,WUHU216DAVISVP2,2013-03-14 00:47:00,
2013-03-13 17:52:00,68.5,21.9,30.18,ENE,65,2.0,7.0,17,0.00,,,0.00,WUHU216DAVISVP2,2013-03-14 00:52:00,
2013-03-13 17:57:00,68.5,24.6,30.19,NE,43,5.0,7.0,19,0.00,,,0.00,WUHU216DAVISVP2,2013-03-14 00:57:00,
2013-03-13 18:02:00,68.2,23.0,30.19,NNE,26,1.0,5.0,18,0.00,,,0.00,WUHU216DAVISVP2,2013-03-14 01:02:00,
2013-03-13 18:07:00,68.2,23.0,30.19,NNE,26,1.0,4.0,18,0.00,,,0.00,WUHU216DAVISVP2,2013-03-14 01:07:00,
2013-03-13 18:12:00,68.0,24.1,30.19,NNE,24,2.0,4.0,19,0.00,,,0.00,WUHU216DAVISVP2,2013-03-14 01:12:00,
2013-03-13 18:17:00,67.5,23.7,30.19,NNE,24,1.0,4.0,19,0.00,,,0.00,WUHU216DAVISVP2,2013-03-14 01:17:00,
2013-03-13 18:22:00,67.0,23.3,30.19,NNE,24,0.0,3.0,19,0.00,,,0.00,WUHU216DAVISVP2,2013-03-14 01:22:00,
2013-03-13 18:27:00,66.7,24.3,30.19,NNE,24,0.0,2.0,20,0.00,,,0.00,WUHU216DAVISVP2,2013-03-14 01:27:00,
2013-03-13 18:32:00,66.3,25.1,30.19,NNE,24,0.0,0.0,21,0.00,,,0.00,WUHU216DAVISVP2,2013-03-14 01:32:00,
2013-03-13 18:37:00,65.9,24.8,30.19,NNE,24,0.0,0.0,21,0.00,,,0.00,WUHU216DAVISVP2,2013-03-14 01:37:00,
2013-03-13 18:42:00,65.5,24.4,30.19,NNE,24,0.0,0.0,21,0.00,,,0.00,WUHU216DAVISVP2,2013-03-14 01:42:00,
2013-03-13 18:47:00,64.9,23.9,30.19,NNE,24,0.0,0.0,21,0.00,,,0.00,WUHU216DAVISVP2,2013-03-14 01:47:00,
2013-03-13 18:52:00,64.3,24.5,30.19,NNE,24,0.0,0.0,22,0.00,,,0.00,WUHU216DAVISVP2,2013-03-14 01:52:00,
2013-03-13 18:57:00,63.8,24.1,30.19,NNE,24,0.0,0.0,22,0.00,,,0.00,WUHU216DAVISVP2,2013-03-14 01:57:00,
2013-03-13 19:02:00,63.2,23.6,30.19,NNE,24,0.0,0.0,22,0.00,,,0.00,WUHU216DAVISVP2,2013-03-14 02:02:00,
2013-03-13 19:07:00,62.6,23.1,30.19,NNE,24,0.0,1.0,22,0.00,,,0.00,WUHU216DAVISVP2,2013-03-14 02:07:00,
2013-03-13 19:12:00,62.4,24.0,30.19,NNE,24,0.0,1.0,23,0.00,,,0.00,WUHU216DAVISVP2,2013-03-14 02:12:00,
2013-03-13 19:17:00,62.0,24.7,30.19,NNE,24,1.0,2.0,24,0.00,,,0.00,WUHU216DAVISVP2,2013-03-14 02:17:00,
2013-03-13 19:22:00,61.6,25.3,30.20,ESE,109,1.0,2.0,25,0.00,,,0.00,WUHU216DAVISVP2,2013-03-14 02:22:00,
2013-03-13 19:27:00,61.1,25.8,30.20,SSE,150,2.0,2.0,26,0.00,,,0.00,WUHU216DAVISVP2,2013-03-14 02:27:00,
2013-03-13 19:32:00,60.5,26.2,30.20,SSE,150,1.0,2.0,27,0.00,,,0.00,WUHU216DAVISVP2,2013-03-14 02:32:00,
2013-03-13 19:37:00,59.9,26.5,30.20,SSE,150,0.0,2.0,28,0.00,,,0.00,WUHU216DAVISVP2,2013-03-14 02:37:00,
2013-03-13 19:42:00,59.3,26.8,30.20,SSE,150,0.0,2.0,29,0.00,,,0.00,WUHU216DAVISVP2,2013-03-14 02:42:00,
2013-03-13 19:47:00,58.7,27.1,30.20,SSE,152,1.0,2.0,30,0.00,,,0.00,WUHU216DAVISVP2,2013-03-14 02:47:00,
2013-03-13 19:52:00,58.0,28.1,30.21,SSE,156,0.0,3.0,32,0.00,,,0.00,WUHU216DAVISVP2,2013-03-14 02:52:00,
2013-03-13 19:57:00,57.4,27.5,30.21,SSE,157,2.0,3.0,32,0.00,,,0.00,WUHU216DAVISVP2,2013-03-14 02:57:00,
2013-03-13 20:02:00,56.8,27.0,30.21,SSE,163,1.0,2.0,32,0.00,,,0.00,WUHU216DAVISVP2,2013-03-14 03:02:00,
2013-03-13 20:07:00,56.2,27.2,30.21,SSE,157,1.0,3.0,33,0.00,,,0.00,WUHU216DAVISVP2,2013-03-14 03:07:00,
2013-03-13 20:12:00,55.7,27.5,30.21,SSE,165,1.0,3.0,34,0.00,,,0.00,WUHU216DAVISVP2,2013-03-14 03:12:00,
2013-03-13 20:17:00,55.1,27.7,30.21,SSE,165,0.0,2.0,35,0.00,,,0.00,WUHU216DAVISVP2,2013-03-14 03:17:00,
2013-03-13 20:22:00,54.8,27.4,30.21,SSE,165,1.0,2.0,35,0.00,,,0.00,WUHU216DAVISVP2,2013-03-14 03:22:00,
2013-03-13 20:27:00,54.8,25.3,30.22,SSE,165,2.0,3.0,32,0.00,,,0.00,WUHU216DAVISVP2,2013-03-14 03:27:00,
2013-03-13 20:32:00,55.4,25.0,30.22,SSE,165,2.0,3.0,31,0.00,,,0.00,WUHU216DAVISVP2,2013-03-14 03:32:00,
2013-03-13 20:37:00,55.9,25.5,30.22,SSE,165,0.0,3.0,31,0.00,,,0.00,WUHU216DAVISVP2,2013-03-14 03:37:00,
2013-03-13 20:42:00,56.3,24.2,30.22,SSE,165,0.0,2.0,29,0.00,,,0.00,WUHU216DAVISVP2,2013-03-14 03:42:00,
2013-03-13 20:47:00,56.5,24.4,30.23,SSE,165,0.0,1.0,29,0.00,,,0.00,WUHU216DAVISVP2,2013-03-14 03:47:00,
2013-03-13 20:52:00,56.2,24.9,30.23,SSE,165,0.0,1.0,30,0.00,,,0.00,WUHU216DAVISVP2,2013-03-14 03:52:00,
2013-03-13 20:57:00,55.9,24.7,30.23,SSE,165,0.0,2.0,30,0.00,,,0.00,WUHU216DAVISVP2,2013-03-14 03:57:00,
2013-03-13 21:00:00,55.9,25.5,30.23,SSE,165,1.0,2.0,31,0.00,,,0.00,WUHU216DAVISVP2,2013-03-14 04:00:00,
2013-03-13 21:05:00,55.9,26.2,30.23,SSE,165,0.0,2.0,32,0.00,,,0.00,WUHU216DAVISVP2,2013-03-14 04:05:00,
2013-03-13 21:10:00,55.4,26.5,30.23,SSE,165,2.0,3.0,33,0.00,,,0.00,WUHU216DAVISVP2,2013-03-14 04:10:00,
2013-03-13 21:15:00,54.5,26.5,30.23,SSE,165,1.0,3.0,34,0.00,,,0.00,WUHU216DAVISVP2,2013-03-14 04:15:00,
2013-03-13 21:20:00,53.3,26.8,30.23,SSE,165,1.0,3.0,36,0.00,,,0.00,WUHU216DAVISVP2,2013-03-14 04:20:00,
2013-03-13 21:25:00,52.5,26.8,30.23,SSE,165,0.0,3.0,37,0.00,,,0.00,WUHU216DAVISVP2,2013-03-14 04:25:00,
2013-03-13 21:30:00,52.0,27.6,30.24,SSE,165,0.0,3.0,39,0.00,,,0.00,WUHU216DAVISVP2,2013-03-14 04:30:00,
2013-03-13 21:35:00,51.3,27.6,30.24,SSE,165,0.0,1.0,40,0.00,,,0.00,WUHU216DAVISVP2,2013-03-14 04:35:00,
2013-03-13 21:40:00,50.9,27.9,30.24,SSE,165,0.0,1.0,41,0.00,,,0.00,WUHU216DAVISVP2,2013-03-14 04:40:00,
2013-03-13 21:45:00,50.9,27.9,30.24,SSE,165,1.0,1.0,41,0.00,,,0.00,WUHU216DAVISVP2,2013-03-14 04:45:00,
2013-03-13 21:50:00,51.8,27.4,30.24,SSE,165,0.0,2.0,39,0.00,,,0.00,WUHU216DAVISVP2,2013-03-14 04:50:00,
2013-03-13 21:55:00,52.1,28.3,30.24,SSE,165,0.0,2.0,40,0.00,,,0.00,WUHU216DAVISVP2,2013-03-14 04:55:00,
2013-03-13 22:00:00,52.2,27.1,30.24,SSE,165,0.0,2.0,38,0.00,,,0.00,WUHU216DAVISVP2,2013-03-14 05:00:00,
2013-03-13 22:06:00,52.5,26.1,30.24,SSE,165,0.0,2.0,36,0.00,,,0.00,WUHU216DAVISVP2,2013-03-14 05:06:00,
2013-03-13 22:10:00,53.5,25.6,30.24,SSE,165,0.0,2.0,34,0.00,,,0.00,WUHU216DAVISVP2,2013-03-14 05:10:00,
2013-03-13 22:15:00,54.2,26.4,30.24,SSE,165,0.0,2.0,34,0.00,,,0.00,WUHU216DAVISVP2,2013-03-14 05:15:00,
2013-03-13 22:20:00,54.0,26.0,30.24,SSE,165,1.0,2.0,34,0.00,,,0.00,WUHU216DAVISVP2,2013-03-14 05:20:00,
2013-03-13 22:25:00,54.2,24.7,30.24,SSE,165,0.0,1.0,32,0.00,,,0.00,WUHU216DAVISVP2,2013-03-14 05:25:00,
2013-03-13 22:30:00,54.9,24.6,30.24,SSE,165,0.0,1.0,31,0.00,,,0.00,WUHU216DAVISVP2,2013-03-14 05:30:00,
2013-03-13 22:35:00,55.4,24.2,30.24,SSE,165,0.0,2.0,30,0.00,,,0.00,WUHU216DAVISVP2,2013-03-14 05:35:00,
2013-03-13 22:40:00,55.6,24.6,30.24,SSE,165,0.0,2.0,30,0.00,,,0.00,WUHU216DAVISVP2,2013-03-14 05:40:00,
2013-03-13 22:45:00,55.1,26.5,30.24,SSE,165,0.0,1.0,33,0.00,,,0.00,WUHU216DAVISVP2,2013-03-14 05:45:00,
2013-03-13 22:50:00,53.3,27.5,30.24,SSE,165,0.0,2.0,37,0.00,,,0.00,WUHU216DAVISVP2,2013-03-14 05:50:00,
2013-03-13 22:55:00,51.2,28.7,30.23,SSE,165,1.0,2.0,42,0.00,,,0.00,WUHU216DAVISVP2,2013-03-14 05:55:00,
2013-03-13 23:00:00,49.6,28.4,30.23,SSE,165,1.0,2.0,44,0.00,,,0.00,WUHU216DAVISVP2,2013-03-14 06:00:00,
2013-03-13 23:05:00,48.6,28.2,30.23,SSE,165,1.0,1.0,45,0.00,,,0.00,WUHU216DAVISVP2,2013-03-14 06:05:00,
2013-03-13 23:10:00,48.3,27.9,30.23,SSE,165,0.0,2.0,45,0.00,,,0.00,WUHU216DAVISVP2,2013-03-14 06:10:00,
2013-03-13 23:15:00,48.2,27.7,30.23,SSE,165,0.0,2.0,45,0.00,,,0.00,WUHU216DAVISVP2,2013-03-14 06:15:00,
2013-03-13 23:20:00,47.9,28.0,30.23,SSE,165,0.0,2.0,46,0.00,,,0.00,WUHU216DAVISVP2,2013-03-14 06:20:00,
2013-03-13 23:25:00,47.6,28.3,30.23,SSE,165,2.0,2.0,47,0.00,,,0.00,WUHU216DAVISVP2,2013-03-14 06:25:00,
2013-03-13 23:30:00,47.2,28.0,30.23,SSE,165,2.0,3.0,47,0.00,,,0.00,WUHU216DAVISVP2,2013-03-14 06:30:00,
2013-03-13 23:35:00,46.8,28.1,30.23,South,169,1.0,4.0,48,0.00,,,0.00,WUHU216DAVISVP2,2013-03-14 06:35:00,
2013-03-13 23:40:00,46.5,27.8,30.23,South,169,0.0,4.0,48,0.00,,,0.00,WUHU216DAVISVP2,2013-03-14 06:40:00,
2013-03-13 23:45:00,46.5,27.3,30.23,South,169,0.0,2.0,47,0.00,,,0.00,WUHU216DAVISVP2,2013-03-14 06:45:00,
2013-03-13 23:50:00,46.7,26.5,30.23,South,169,0.0,1.0,45,0.00,,,0.00,WUHU216DAVISVP2,2013-03-14 06:50:00,
2013-03-13 23:55:00,47.3,25.9,30.23,South,169,0.0,0.0,43,0.00,,,0.00,WUHU216DAVISVP2,2013-03-14 06:55:00,